Date String (YYYY-MM-DD hh:mm:ss) UTC,Instrument flags,absolute air pressure of the measurement (hPa),sample flow rate (lpm),inlet stack bypass flow (lpm),air temperature of the measurement (°C),ambient temperature measured by the external sensor (°C),aerosol sample conditioner tube jacket temperature (°C),OPC LED temperature (°C),internal box temperature (°C),relative humidity of the measurement (%),span deviation,mass concentration of particles derived from Lorenz-Mie calculation of OPC scattering (μg/m³),mass concentration of particles derived from Lorenz-Mie calculation of OPC scattering (μg/m³),mass concentration of particles derived from Lorenz-Mie calculation of OPC scattering (μg/m³)
DateTimeUTC,F1_M11,P_M11,Q1_M11,Q2_M11,T1_M11,T2_M11,T3_M11,T4_M11,T5_M11,U1_M11,ZSPAN_M11,X2_M11,X0_M11,X1_M11
2023-09-09 00:00:00,SystemResetWarning,0833.4,5.00,000.00,027.9,026.6,000.0,036.0,029.7,15.4,0000.0,0003.77,0009.76,0003.11
2023-09-09 00:01:00,SystemResetWarning,0833.4,4.98,000.00,027.9,025.5,000.0,036.0,029.4,14.9,0000.0,0003.71,0010.07,0002.95
2023-09-09 00:02:00,SystemResetWarning,0833.3,5.01,000.00,027.8,024.3,000.0,035.9,029.2,14.6,0000.0,0003.74,0009.49,0003.00
2023-09-09 00:03:00,SystemResetWarning,0833.3,5.01,000.00,027.8,024.5,000.0,035.9,029.2,14.4,0000.0,0003.76,0009.45,0003.03
2023-09-09 00:04:00,SystemResetWarning,0833.4,5.00,000.00,027.7,024.8,000.0,035.9,029.2,14.4,0000.0,0003.77,0009.67,0003.05
2023-09-09 00:05:00,SystemResetWarning,0833.4,5.00,000.00,027.7,025.2,000.0,035.9,029.3,14.4,0000.0,0003.79,0009.54,0003.04
2023-09-09 00:06:00,SystemResetWarning,0833.4,5.00,000.00,027.8,025.7,000.0,035.9,029.4,14.4,0000.0,0003.83,0009.45,0003.02
2023-09-09 00:07:00,SystemResetWarning,0833.4,5.00,000.00,027.8,026.1,000.0,035.9,029.5,14.6,0000.0,0003.85,0009.59,0003.01
2023-09-09 00:08:00,SystemResetWarning,0833.4,4.99,000.00,027.9,026.5,000.0,036.0,029.6,14.7,0000.0,0003.85,0009.95,0003.02
2023-09-09 00:09:00,SystemResetWarning,0833.4,5.00,000.00,027.9,026.2,000.0,036.0,029.5,14.4,0000.0,0003.80,0010.08,0003.01
2023-09-09 00:10:00,SystemResetWarning,0833.4,5.00,000.00,027.8,024.7,000.0,035.9,029.2,14.5,0000.0,0003.75,0009.94,0003.00
2023-09-09 00:11:00,SystemResetWarning,0833.4,5.00,000.00,027.8,024.3,000.0,035.9,029.2,15.1,0000.0,0003.73,0009.61,0002.99
2023-09-09 00:12:00,SystemResetWarning,0833.4,5.02,000.00,027.7,024.6,000.0,035.9,029.1,15.6,0000.0,0003.68,0009.32,0002.99
2023-09-09 00:13:00,SystemResetWarning,0833.4,5.00,000.00,027.7,024.9,000.0,035.9,029.1,15.5,0000.0,0003.67,0009.97,0002.99
2023-09-09 00:14:00,SystemResetWarning,0833.4,5.00,000.00,027.7,025.4,000.0,035.9,029.3,15.4,0000.0,0003.68,0009.85,0002.98
2023-09-09 00:15:00,SystemResetWarning,0833.4,5.00,000.00,027.7,025.9,000.0,035.9,029.4,15.6,0000.0,0003.65,0009.76,0002.95
2023-09-09 00:16:00,SystemResetWarning,0833.4,5.00,000.00,027.8,026.3,000.0,035.9,029.5,15.5,0000.0,0003.67,0010.84,0002.94
2023-09-09 00:17:00,SystemResetWarning,0833.4,5.00,000.00,027.8,026.6,000.0,036.0,029.6,15.3,0000.0,0003.64,0011.39,0002.92
2023-09-09 00:18:00,SystemResetWarning,0833.4,4.99,000.00,027.9,026.3,000.0,036.0,029.6,15.1,0000.0,0003.58,0011.78,0002.92
2023-09-09 00:19:00,SystemResetWarning,0833.4,4.99,000.00,027.8,024.8,000.0,035.9,029.3,15.3,0000.0,0003.59,0012.63,0002.92
2023-09-09 00:20:00,SystemResetWarning,0833.4,5.02,000.00,027.8,024.2,000.0,035.9,029.2,15.2,0000.0,0003.63,0014.70,0002.91
2023-09-09 00:21:00,SystemResetWarning,0833.4,4.99,000.00,027.7,024.5,000.0,035.9,029.2,15.1,0000.0,0003.66,0015.98,0002.89
2023-09-09 00:22:00,SystemResetWarning,0833.4,4.99,000.00,027.7,024.9,000.0,035.9,029.2,15.2,0000.0,0003.67,0016.78,0002.86
2023-09-09 00:23:00,SystemResetWarning,0833.4,5.00,000.00,027.7,025.4,000.0,035.9,029.3,15.2,0000.0,0003.68,0017.22,0002.83
2023-09-09 00:24:00,SystemResetWarning,0833.4,5.02,000.00,027.8,025.8,000.0,035.9,029.4,15.3,0000.0,0003.67,0016.71,0002.80
2023-09-09 00:25:00,SystemResetWarning,0833.4,4.99,000.00,027.8,026.2,000.0,035.9,029.5,15.6,0000.0,0003.68,0016.48,0002.78
2023-09-09 00:26:00,SystemResetWarning,0833.4,5.00,000.00,027.9,026.6,000.0,036.0,029.6,15.5,0000.0,0003.69,0016.48,0002.77
2023-09-09 00:27:00,SystemResetWarning,0833.5,5.00,000.00,027.9,026.8,000.0,036.0,029.7,15.6,0000.0,0003.68,0015.95,0002.76
2023-09-09 00:28:00,SystemResetWarning,0833.4,4.99,000.00,027.9,025.9,000.0,036.0,029.5,15.4,0000.0,0003.64,0015.11,0002.75
2023-09-09 00:29:00,SystemResetWarning,0833.4,5.00,000.00,027.9,024.5,000.0,035.9,029.3,15.1,0000.0,0003.63,0014.74,0002.74
2023-09-09 00:30:00,SystemResetWarning,0833.5,5.02,000.00,027.8,024.4,000.0,035.9,029.3,15.1,0000.0,0003.61,0013.81,0002.73
2023-09-09 00:31:00,SystemResetWarning,0833.4,4.99,000.00,027.8,024.7,000.0,035.9,029.2,15.1,0000.0,0003.57,0012.01,0002.71
2023-09-09 00:32:00,SystemResetWarning,0833.4,5.00,000.00,027.7,025.1,000.0,035.9,029.3,15.0,0000.0,0003.54,0011.65,0002.72
2023-09-09 00:33:00,SystemResetWarning,0833.5,5.01,000.00,027.8,025.6,000.0,035.9,029.3,15.1,0000.0,0003.56,0011.11,0002.73
2023-09-09 00:34:00,SystemResetWarning,0833.5,5.00,000.00,027.8,026.0,000.0,036.0,029.4,15.0,0000.0,0003.54,0010.57,0002.74
2023-09-09 00:35:00,SystemResetWarning,0833.5,5.00,000.00,027.9,026.4,000.0,036.0,029.6,14.6,0000.0,0003.52,0010.21,0002.76
2023-09-09 00:36:00,SystemResetWarning,0833.6,5.00,000.00,027.9,026.7,000.0,036.0,029.7,14.4,0000.0,0003.45,0010.40,0002.77
2023-09-09 00:37:00,SystemResetWarning,0833.5,4.99,000.00,027.9,025.9,000.0,036.0,029.5,14.4,0000.0,0003.47,0010.44,0002.78
2023-09-09 00:38:00,SystemResetWarning,0833.5,5.00,000.00,027.9,024.5,000.0,035.9,029.2,14.4,0000.0,0003.49,0010.18,0002.81
2023-09-09 00:39:00,SystemResetWarning,0833.5,5.02,000.00,027.8,024.3,000.0,035.9,029.2,14.6,0000.0,0003.50,0010.03,0002.83
2023-09-09 00:40:00,SystemResetWarning,0833.5,4.98,000.00,027.7,024.6,000.0,035.9,029.2,14.4,0000.0,0003.51,0009.85,0002.83
2023-09-09 00:41:00,SystemResetWarning,0833.6,4.99,000.00,027.7,025.0,000.0,035.9,029.2,15.2,0000.0,0003.54,0009.62,0002.84
2023-09-09 00:42:00,SystemResetWarning,0833.6,5.01,000.00,027.7,025.5,000.0,035.9,029.3,16.8,0000.0,0003.54,0009.71,0002.84
2023-09-09 00:43:00,SystemResetWarning,0833.6,5.01,000.00,027.8,025.9,000.0,036.0,029.4,17.6,0000.0,0003.55,0008.97,0002.82
2023-09-09 00:44:00,SystemResetWarning,0833.6,5.00,000.00,027.8,026.3,000.0,036.0,029.5,17.7,0000.0,0003.55,0008.95,0002.80
2023-09-09 00:45:00,SystemResetWarning,0833.6,5.00,000.00,027.9,026.6,000.0,036.0,029.6,17.7,0000.0,0003.58,0009.25,0002.79
2023-09-09 00:46:00,SystemResetWarning,0833.6,4.99,000.00,027.9,025.9,000.0,036.0,029.5,18.0,0000.0,0003.62,0009.74,0002.78
2023-09-09 00:47:00,SystemResetWarning,0833.5,5.00,000.00,027.8,024.5,000.0,035.9,029.2,18.4,0000.0,0003.63,0009.37,0002.78
2023-09-09 00:48:00,SystemResetWarning,0833.6,5.02,000.00,027.8,024.2,000.0,035.9,029.2,18.6,0000.0,0003.63,0009.24,0002.78
2023-09-09 00:49:00,SystemResetWarning,0833.6,4.99,000.00,027.7,024.5,000.0,035.9,029.2,18.7,0000.0,0003.61,0009.46,0002.76
2023-09-09 00:50:00,SystemResetWarning,0833.6,5.00,000.00,027.7,024.9,000.0,035.9,029.2,18.8,0000.0,0003.61,0009.46,0002.76
2023-09-09 00:51:00,SystemResetWarning,0833.6,5.00,000.00,027.7,025.4,000.0,035.9,029.3,18.9,0000.0,0003.63,0009.88,0002.77
2023-09-09 00:52:00,SystemResetWarning,0833.6,5.00,000.00,027.7,025.8,000.0,035.9,029.4,19.0,0000.0,0003.65,0010.24,0002.76
2023-09-09 00:53:00,SystemResetWarning,0833.7,4.99,000.00,027.8,026.2,000.0,036.0,029.5,18.7,0000.0,0003.65,0010.77,0002.77
2023-09-09 00:54:00,SystemResetWarning,0833.7,5.01,000.00,027.8,026.5,000.0,036.0,029.6,18.1,0000.0,0003.66,0011.01,0002.79
2023-09-09 00:55:00,SystemResetWarning,0833.6,5.00,000.00,027.9,026.8,000.0,036.0,029.7,17.9,0000.0,0003.68,0010.87,0002.81
2023-09-09 00:56:00,SystemResetWarning,0833.7,4.98,000.00,027.9,026.3,000.0,036.0,029.6,17.8,0000.0,0003.66,0010.95,0002.82
2023-09-09 00:57:00,SystemResetWarning,0833.7,5.01,000.00,027.9,024.7,000.0,036.0,029.2,18.0,0000.0,0003.64,0011.59,0002.82
2023-09-09 00:58:00,SystemResetWarning,0833.6,5.01,000.00,027.8,024.3,000.0,035.9,029.2,18.3,0000.0,0003.67,0012.32,0002.82
2023-09-09 00:59:00,SystemResetWarning,0833.7,5.00,000.00,027.7,024.5,000.0,035.9,029.2,18.6,0000.0,0003.67,0012.95,0002.82
